Weather History for Worland, WY

Change the Weather History Date:

Wednesday, December 12, 2012

  Actual Average Record
Temperature  
Mean Temperature 31 °F 18 °F  
Max Temperature 49 °F 31 °F 53 °F (1995)
Min Temperature 12 °F 5 °F -22 °F (1972)
Degree Days  
Heating Degree Days 34 47  
Month to date heating degree days 424 545  
Since 1 July heating degree days 1816 2437  
Cooling Degree Days 0 0  
Month to date cooling degree days 0 0  
Year to date cooling degree days 901 535  
Moisture  
Dew Point 19 °F    
Average Humidity 63    
Maximum Humidity 92    
Minimum Humidity 34    
Precipitation  
Precipitation 0.00 in 0.01 in 0.29 in (1992)
Month to date precipitation 0.04 0.10  
Year to date precipitation 2.69 7.44  
Sea Level Pressure  
Sea Level Pressure 29.74 in    
Wind  
Wind Speed 8 mph (SSW)    
Max Wind Speed 26 mph    
Max Gust Speed 32 mph    
Visibility 10 miles    
Events      
T = Trace of Precipitation, MM = Missing Value Source: NWS Daily Summary

Daily Weather History Graph

Daily Weather History Graph

Search for Another Location

Airport:

Trip Planner

Search our weather history database for the weather conditions in past years. The results will help you decide how hot, cold, wet, or windy it might be!

Date:

Astronomy

Dec. 12, 2012 Rise Set
Actual Time 7:37 AM MST 4:34 PM MST
Civil Twilight 7:04 AM MST 5:06 PM MST
Nautical Twilight 6:28 AM MST 5:43 PM MST
Astronomical Twilight 5:53 AM MST 6:18 PM MST
Moon 6:44 AM MST (12/12) 4:14 PM MST (12/12)
Length of Visible Light 10h 02m
Length of Day
8h 56m
Waning Crescent, 0% of the Moon is Illuminated
Dec 12
Waning Crescent
Dec 13
New
Dec 19
First Quarter
Dec 28
Full
Jan 4
Last Quarter

Hourly Weather History & Observations

Time (MST) Temp. Windchill Dew Point Humidity Pressure Visibility Wind Dir Wind Speed Gust Speed Precip Events Conditions
12:53 AM 19.9 °F - 17.1 °F 89% 29.71 in 10.0 mi Calm Calm - N/A   Clear
1:53 AM 18.0 °F - 16.0 °F 92% 29.71 in 10.0 mi Calm Calm - N/A   Clear
2:53 AM 19.9 °F - 16.0 °F 85% 29.70 in 10.0 mi Calm Calm - N/A   Clear
3:53 AM 19.9 °F 14.9 °F 16.0 °F 85% 29.70 in 10.0 mi South 3.5 mph - N/A   Clear
4:53 AM 19.0 °F 13.9 °F 16.0 °F 88% 29.71 in 10.0 mi SSE 3.5 mph - N/A   Clear
5:53 AM 18.0 °F - 16.0 °F 92% 29.73 in 10.0 mi Calm Calm - N/A   Clear
6:53 AM 17.1 °F - 15.1 °F 92% 29.72 in 10.0 mi Calm Calm - N/A   Clear
7:53 AM 12.9 °F 6.9 °F 10.9 °F 92% 29.73 in 10.0 mi SSW 3.5 mph - N/A   Clear
8:53 AM 19.9 °F - 16.0 °F 85% 29.70 in 10.0 mi Calm Calm - N/A   Clear
9:53 AM 26.1 °F - 19.0 °F 75% 29.69 in 10.0 mi Calm Calm - N/A   Clear
10:30 AM 39.2 °F 29.8 °F 23.0 °F 52% 29.58 in 10.0 mi South 18.4 mph - N/A   Clear
10:53 AM 41.0 °F 31.9 °F 23.0 °F 49% 29.65 in 10.0 mi South 19.6 mph - N/A   Clear
11:53 AM 44.1 °F 37.1 °F 24.1 °F 45% 29.62 in 10.0 mi South 15.0 mph - N/A   Clear
12:53 PM 46.9 °F - 24.1 °F 41% 29.60 in 10.0 mi SSW 17.3 mph 26.5 mph N/A   Clear
1:53 PM 48.0 °F - 24.1 °F 39% 29.62 in 10.0 mi SW 19.6 mph - N/A   Clear
2:53 PM 48.0 °F - 21.9 °F 36% 29.65 in 10.0 mi SW 20.7 mph 26.5 mph N/A   Clear
3:53 PM 45.0 °F 38.5 °F 21.9 °F 40% 29.68 in 10.0 mi WSW 13.8 mph - N/A   Clear
4:53 PM 42.1 °F 34.2 °F 19.0 °F 40% 29.73 in 10.0 mi SW 16.1 mph - N/A   Clear
5:53 PM 37.0 °F 28.9 °F 19.0 °F 48% 29.79 in 10.0 mi SW 12.7 mph - N/A   Clear
6:53 PM 35.1 °F - 19.0 °F 52% 29.83 in 10.0 mi North - - N/A   Clear
7:53 PM 30.0 °F - 19.0 °F 64% 29.89 in 10.0 mi Calm Calm - N/A   Clear
8:53 PM 26.1 °F 17.6 °F 19.9 °F 78% 29.94 in 10.0 mi North 8.1 mph - N/A   Clear
9:53 PM 27.0 °F 20.5 °F 21.9 °F 81% 29.93 in 10.0 mi NNE 5.8 mph - N/A   Clear
10:53 PM 21.9 °F 14.5 °F 19.0 °F 89% 29.92 in 10.0 mi South 5.8 mph - N/A   Clear
11:53 PM 23.0 °F 13.1 °F 19.9 °F 88% 29.93 in 10.0 mi South 9.2 mph - N/A   Clear